This demonstration page uses our WeatherBlox Daily Observations layout. Learn more.

Left ArrowRight Arrow

Hourly Observations for December 11, 2019

Temp ( °F °C ) Dew Point ( °F °C ) Humidity (%) Winds ( mph kmh ) Pressure ( in mb ) Visibility ( mi km ) Precip ( " mm )
12:56 am 00:56 Clear 26 -3.3 22 -5.6 84 84 WSW 13 20 30.29 1026 10 16 0.00 0.00
1:56 am 01:56 Clear 27 -2.8 22 -5.6 81 81 SW 16 26 30.27 1025 10 16 0.00 0.00
2:56 am 02:56 Clear 26 -3.3 21 -6.1 81 81 SW 13 20 30.27 1025 10 16 0.00 0.00
3:56 am 03:56 Clear 26 -3.3 21 -6.1 81 81 SW 13 20 30.26 1025 10 16 0.00 0.00
4:56 am 04:56 Clear 26 -3.3 21 -6.1 81 81 WSW 7 11 30.27 1025 10 16 0.00 0.00
5:56 am 05:56 Clear 25 -3.9 20 -6.7 81 81 WSW 5 7 30.29 1026 10 16 0.00 0.00
6:56 am 06:56 Clear 22 -5.6 18 -7.8 85 85 NNW 5 7 30.34 1027 10 16 0.00 0.00
7:56 am 07:56 Sunny 19 -7.2 16 -8.9 88 88 NNE 10 17 30.36 1028 10 16 0.00 0.00
8:56 am 08:56 Sunny 24 -4.4 21 -6.1 88 88 NE 13 20 30.38 1029 8 13 0.00 0.00
9:20 am 09:20 Mostly Sunny 25 -4 21 -6 86 86 NE 15 24 30.44 1031 10 16 0.00 0.00
9:56 am 09:56 Sunny 25 -3.9 21 -6.1 85 85 E 14 22 30.40 1029 10 16 0.00 0.00
10:56 am 10:56 Sunny 27 -2.8 21 -6.1 78 78 E 12 19 30.39 1029 10 16 0.00 0.00
11:56 am 11:56 Sunny 32 0 23 -5 69 69 ESE 10 17 30.34 1028 10 16 0.00 0.00
12:56 pm 12:56 Sunny 33 0.6 23 -5 66 66 ESE 15 24 30.29 1026 10 16 0.00 0.00
1:56 pm 13:56 Sunny 35 1.7 24 -4.4 64 64 SE 14 22 30.25 1024 10 16 0.00 0.00
2:56 pm 14:56 Sunny 37 2.8 25 -3.9 62 62 SE 14 22 30.22 1024 10 16 0.00 0.00
3:56 pm 15:56 Sunny 38 3.3 25 -3.9 60 60 SE 16 26 30.19 1022 10 16 0.00 0.00
4:56 pm 16:56 Sunny 34 1.1 25 -3.9 70 70 SE 10 17 30.17 1022 10 16 0.00 0.00
5:56 pm 17:56 Clear 32 0 25 -3.9 75 75 SE 10 17 30.15 1021 10 16 0.00 0.00
6:56 pm 18:56 Clear 30 -1.1 24 -4.4 79 79 SE 9 15 30.14 1021 10 16 0.00 0.00
7:56 pm 19:56 Clear 30 -1.1 24 -4.4 79 79 SE 10 17 30.10 1019 10 16 0.00 0.00
8:56 pm 20:56 Clear 30 -1.1 23 -5 75 75 SE 8 13 30.07 1018 10 16 0.00 0.00
9:56 pm 21:56 Clear 31 -0.6 25 -3.9 79 79 SSE 12 19 30.02 1017 10 16 0.00 0.00
10:56 pm 22:56 Clear 35 1.7 28 -2.2 76 76 S 15 24 30.00 1016 10 16 0.00 0.00
11:56 pm 23:56 Clear 36 2.2 30 -1.1 79 79 S 13 20 29.99 1016 10 16 0.00 0.00

Powered by AerisWeather